contact:dominique.lefevre@mio.osupytheas.fr, maurice.libes@osupytheas.fr, didier.mallarino@osupytheas.fr
Project:EMSO http://www.emso-fr.org/EMSO-France
Depth: 2436.0 m
Title:EMSO Ligure Ouest : Data MII capteur MICROCAT
DateTime_Computer,Latitude,Longitude,Temperature,Conductivity,Pressure,DateTime_Instrument
DateTime_Computer,Latitude,Longitude,degC,S m-1,dbar,DateTime_Instrument
2021-05-26T00:01:03Z,42.805,6.029,13.2995,4.60003,2470.334,2021-5-26T02:02:15Z
2021-05-26T00:04:06Z,42.805,6.029,13.2999,4.60002,2470.32,2021-5-26T02:05:18Z
2021-05-26T00:07:10Z,42.805,6.029,13.2997,4.60003,2470.334,2021-5-26T02:08:21Z
2021-05-26T00:10:13Z,42.805,6.029,13.2998,4.60002,2470.297,2021-5-26T02:11:25Z
2021-05-26T00:13:16Z,42.805,6.029,13.2994,4.60004,2470.297,2021-5-26T02:14:28Z
2021-05-26T00:16:19Z,42.805,6.029,13.2996,4.60003,2470.31,2021-5-26T02:17:31Z
2021-05-26T00:19:22Z,42.805,6.029,13.2993,4.60002,2470.287,2021-5-26T02:20:34Z
2021-05-26T00:22:25Z,42.805,6.029,13.2995,4.60002,2470.32,2021-5-26T02:23:37Z
2021-05-26T00:25:28Z,42.805,6.029,13.2998,4.60002,2470.297,2021-5-26T02:26:40Z
2021-05-26T00:28:31Z,42.805,6.029,13.2996,4.60003,2470.273,2021-5-26T02:29:43Z
2021-05-26T00:31:35Z,42.805,6.029,13.2997,4.60002,2470.31,2021-5-26T02:32:46Z
2021-05-26T00:34:38Z,42.805,6.029,13.2998,4.60002,2470.287,2021-5-26T02:35:50Z
2021-05-26T00:37:41Z,42.805,6.029,13.3001,4.60003,2470.287,2021-5-26T02:38:53Z
2021-05-26T00:40:44Z,42.805,6.029,13.2995,4.60002,2470.297,2021-5-26T02:41:56Z
2021-05-26T00:43:47Z,42.805,6.029,13.2992,4.60001,2470.297,2021-5-26T02:44:59Z
2021-05-26T00:46:50Z,42.805,6.029,13.2996,4.60002,2470.25,2021-5-26T02:48:02Z
2021-05-26T00:49:53Z,42.805,6.029,13.2997,4.60002,2470.273,2021-5-26T02:51:05Z
2021-05-26T00:52:56Z,42.805,6.029,13.2995,4.60002,2470.26,2021-5-26T02:54:08Z
2021-05-26T00:56:00Z,42.805,6.029,13.2994,4.60003,2470.273,2021-5-26T02:57:11Z
2021-05-26T00:59:03Z,42.805,6.029,13.2993,4.60003,2470.273,2021-5-26T03:00:15Z
2021-05-26T01:02:06Z,42.805,6.029,13.2992,4.60003,2470.287,2021-5-26T03:03:18Z
2021-05-26T01:05:09Z,42.805,6.029,13.2996,4.60002,2470.31,2021-5-26T03:06:21Z
2021-05-26T01:08:12Z,42.805,6.029,13.2993,4.60000,2470.25,2021-5-26T03:09:24Z
2021-05-26T01:11:15Z,42.805,6.029,13.2996,4.59999,2470.273,2021-5-26T03:12:27Z
2021-05-26T01:14:18Z,42.805,6.029,13.2996,4.60000,2470.264,2021-5-26T03:15:30Z
2021-05-26T01:17:21Z,42.805,6.029,13.2993,4.59999,2470.287,2021-5-26T03:18:33Z
2021-05-26T01:20:25Z,42.805,6.029,13.2996,4.59999,2470.24,2021-5-26T03:21:36Z
2021-05-26T01:23:28Z,42.805,6.029,13.2992,4.59999,2470.24,2021-5-26T03:24:40Z
2021-05-26T01:26:31Z,42.805,6.029,13.2991,4.59999,2470.25,2021-5-26T03:27:43Z
2021-05-26T01:29:34Z,42.805,6.029,13.2992,4.59999,2470.264,2021-5-26T03:30:46Z
2021-05-26T01:32:37Z,42.805,6.029,13.2993,4.59999,2470.273,2021-5-26T03:33:49Z
2021-05-26T01:35:40Z,42.805,6.029,13.2991,4.59998,2470.273,2021-5-26T03:36:52Z
2021-05-26T01:38:43Z,42.805,6.029,13.2992,4.59999,2470.25,2021-5-26T03:39:55Z
2021-05-26T01:41:46Z,42.805,6.029,13.2994,4.59998,2470.287,2021-5-26T03:42:58Z
2021-05-26T01:44:50Z,42.805,6.029,13.2994,4.59997,2470.25,2021-5-26T03:46:01Z
2021-05-26T01:47:53Z,42.805,6.029,13.2990,4.59998,2470.287,2021-5-26T03:49:05Z
2021-05-26T01:50:56Z,42.805,6.029,13.2996,4.59998,2470.264,2021-5-26T03:52:08Z
2021-05-26T01:53:59Z,42.805,6.029,13.2993,4.59998,2470.227,2021-5-26T03:55:11Z
2021-05-26T01:57:02Z,42.805,6.029,13.2993,4.59999,2470.273,2021-5-26T03:58:14Z
2021-05-26T02:00:05Z,42.805,6.029,13.2990,4.59997,2470.213,2021-5-26T04:01:17Z
2021-05-26T02:03:08Z,42.805,6.029,13.2993,4.59997,2470.25,2021-5-26T04:04:20Z
2021-05-26T02:06:11Z,42.805,6.029,13.2996,4.59997,2470.273,2021-5-26T04:07:23Z
2021-05-26T02:09:14Z,42.805,6.029,13.2991,4.59997,2470.25,2021-5-26T04:10:26Z
2021-05-26T02:12:18Z,42.805,6.029,13.2993,4.59997,2470.273,2021-5-26T04:13:30Z
2021-05-26T02:15:21Z,42.805,6.029,13.2991,4.59997,2470.273,2021-5-26T04:16:33Z
2021-05-26T02:18:24Z,42.805,6.029,13.2991,4.59998,2470.31,2021-5-26T04:19:36Z
2021-05-26T02:21:27Z,42.805,6.029,13.2993,4.59996,2470.264,2021-5-26T04:22:39Z
2021-05-26T02:24:30Z,42.805,6.029,13.2992,4.59998,2470.264,2021-5-26T04:25:42Z
2021-05-26T02:27:33Z,42.805,6.029,13.2996,4.59998,2470.273,2021-5-26T04:28:45Z
2021-05-26T02:30:36Z,42.805,6.029,13.2991,4.59996,2470.25,2021-5-26T04:31:48Z
2021-05-26T02:33:40Z,42.805,6.029,13.2990,4.59997,2470.297,2021-5-26T04:34:51Z
2021-05-26T02:36:43Z,42.805,6.029,13.2993,4.59999,2470.273,2021-5-26T04:37:55Z
2021-05-26T02:39:46Z,42.805,6.029,13.2990,4.59997,2470.297,2021-5-26T04:40:58Z
2021-05-26T02:42:49Z,42.805,6.029,13.2990,4.59997,2470.297,2021-5-26T04:44:01Z
2021-05-26T02:45:52Z,42.805,6.029,13.2992,4.59999,2470.25,2021-5-26T04:47:04Z
2021-05-26T02:48:55Z,42.805,6.029,13.2996,4.59997,2470.273,2021-5-26T04:50:07Z
2021-05-26T02:51:58Z,42.805,6.029,13.2991,4.59997,2470.273,2021-5-26T04:53:10Z
2021-05-26T02:55:01Z,42.805,6.029,13.2993,4.59997,2470.297,2021-5-26T04:56:13Z
2021-05-26T02:58:04Z,42.805,6.029,13.2995,4.59998,2470.31,2021-5-26T04:59:16Z
2021-05-26T03:01:08Z,42.805,6.029,13.2992,4.59998,2470.31,2021-5-26T05:02:19Z
2021-05-26T03:04:11Z,42.805,6.029,13.2993,4.59997,2470.297,2021-5-26T05:05:23Z
2021-05-26T03:07:14Z,42.805,6.029,13.2993,4.59998,2470.297,2021-5-26T05:08:26Z
2021-05-26T03:10:17Z,42.805,6.029,13.2991,4.59998,2470.343,2021-5-26T05:11:29Z
2021-05-26T03:13:20Z,42.805,6.029,13.2993,4.59999,2470.297,2021-5-26T05:14:32Z
2021-05-26T03:16:23Z,42.805,6.029,13.2992,4.59998,2470.334,2021-5-26T05:17:35Z
2021-05-26T03:19:26Z,42.805,6.029,13.2991,4.59999,2470.297,2021-5-26T05:20:38Z
2021-05-26T03:22:29Z,42.805,6.029,13.2993,4.59998,2470.32,2021-5-26T05:23:41Z
2021-05-26T03:25:33Z,42.805,6.029,13.2992,4.59999,2470.32,2021-5-26T05:26:44Z
2021-05-26T03:28:36Z,42.805,6.029,13.2994,4.59999,2470.343,2021-5-26T05:29:48Z
2021-05-26T03:31:39Z,42.805,6.029,13.2990,4.59999,2470.343,2021-5-26T05:32:51Z
2021-05-26T03:34:42Z,42.805,6.029,13.2995,4.59999,2470.297,2021-5-26T05:35:54Z
2021-05-26T03:37:45Z,42.805,6.029,13.2991,4.59999,2470.343,2021-5-26T05:38:57Z
2021-05-26T03:40:48Z,42.805,6.029,13.2995,4.59999,2470.343,2021-5-26T05:42:00Z
2021-05-26T03:43:51Z,42.805,6.029,13.2993,4.59999,2470.366,2021-5-26T05:45:03Z
2021-05-26T03:46:54Z,42.805,6.029,13.2990,4.59999,2470.343,2021-5-26T05:48:06Z
2021-05-26T03:49:58Z,42.805,6.029,13.2994,4.59999,2470.38,2021-5-26T05:51:09Z
2021-05-26T03:53:01Z,42.805,6.029,13.2992,4.59999,2470.366,2021-5-26T05:54:13Z
2021-05-26T03:56:04Z,42.805,6.029,13.2993,4.59999,2470.38,2021-5-26T05:57:16Z
2021-05-26T03:59:07Z,42.805,6.029,13.2994,4.59999,2470.38,2021-5-26T06:00:19Z
2021-05-26T04:02:10Z,42.805,6.029,13.2995,4.59999,2470.38,2021-5-26T06:03:22Z
2021-05-26T04:05:13Z,42.805,6.029,13.2993,4.59999,2470.343,2021-5-26T06:06:25Z
2021-05-26T04:08:16Z,42.805,6.029,13.2995,4.59999,2470.357,2021-5-26T06:09:28Z
2021-05-26T04:11:19Z,42.805,6.029,13.2993,4.59999,2470.357,2021-5-26T06:12:31Z
2021-05-26T04:14:23Z,42.805,6.029,13.2993,4.60001,2470.366,2021-5-26T06:15:34Z
2021-05-26T04:17:26Z,42.805,6.029,13.2993,4.60001,2470.39,2021-5-26T06:18:38Z
2021-05-26T04:20:29Z,42.805,6.029,13.2993,4.59999,2470.413,2021-5-26T06:21:41Z
2021-05-26T04:23:32Z,42.805,6.029,13.2995,4.59999,2470.38,2021-5-26T06:24:44Z
2021-05-26T04:26:35Z,42.805,6.029,13.2994,4.60000,2470.404,2021-5-26T06:27:47Z
2021-05-26T04:29:38Z,42.805,6.029,13.2993,4.60000,2470.39,2021-5-26T06:30:50Z
2021-05-26T04:32:41Z,42.805,6.029,13.2994,4.59999,2470.427,2021-5-26T06:33:53Z
2021-05-26T04:35:44Z,42.805,6.029,13.2993,4.59999,2470.404,2021-5-26T06:36:56Z
2021-05-26T04:38:48Z,42.805,6.029,13.2994,4.59999,2470.437,2021-5-26T06:39:59Z
2021-05-26T04:41:51Z,42.805,6.029,13.2993,4.60000,2470.427,2021-5-26T06:43:03Z
2021-05-26T04:44:54Z,42.805,6.029,13.2994,4.60001,2470.427,2021-5-26T06:46:06Z
2021-05-26T04:47:57Z,42.805,6.029,13.2996,4.60000,2470.413,2021-5-26T06:49:09Z
2021-05-26T04:51:00Z,42.805,6.029,13.2993,4.59999,2470.427,2021-5-26T06:52:12Z
2021-05-26T04:54:03Z,42.805,6.029,13.2997,4.60000,2470.437,2021-5-26T06:55:15Z
2021-05-26T04:57:06Z,42.805,6.029,13.2994,4.60000,2470.437,2021-5-26T06:58:18Z
2021-05-26T05:00:09Z,42.805,6.029,13.2997,4.60001,2470.413,2021-5-26T07:01:21Z
2021-05-26T05:03:13Z,42.805,6.029,13.2993,4.60001,2470.413,2021-5-26T07:04:24Z
2021-05-26T05:06:16Z,42.805,6.029,13.2996,4.60001,2470.437,2021-5-26T07:07:28Z
2021-05-26T05:09:19Z,42.805,6.029,13.2995,4.60000,2470.437,2021-5-26T07:10:31Z
2021-05-26T05:12:22Z,42.805,6.029,13.2996,4.60002,2470.46,2021-5-26T07:13:34Z
2021-05-26T05:15:25Z,42.805,6.029,13.2996,4.60001,2470.413,2021-5-26T07:16:37Z
2021-05-26T05:18:28Z,42.805,6.029,13.2996,4.60002,2470.437,2021-5-26T07:19:40Z
2021-05-26T05:21:31Z,42.805,6.029,13.2996,4.60001,2470.437,2021-5-26T07:22:43Z
2021-05-26T05:24:34Z,42.805,6.029,13.2996,4.60001,2470.45,2021-5-26T07:25:46Z
2021-05-26T05:27:38Z,42.805,6.029,13.2996,4.60002,2470.437,2021-5-26T07:28:49Z
2021-05-26T05:30:41Z,42.805,6.029,13.2994,4.60001,2470.46,2021-5-26T07:31:53Z
2021-05-26T05:33:44Z,42.805,6.029,13.2990,4.60001,2470.45,2021-5-26T07:34:56Z
2021-05-26T05:36:47Z,42.805,6.029,13.2997,4.60001,2470.46,2021-5-26T07:37:59Z
2021-05-26T05:39:50Z,42.805,6.029,13.2996,4.60001,2470.507,2021-5-26T07:41:02Z
2021-05-26T05:42:53Z,42.805,6.029,13.2996,4.60001,2470.497,2021-5-26T07:44:05Z
2021-05-26T05:45:56Z,42.805,6.029,13.2992,4.60000,2470.483,2021-5-26T07:47:08Z
2021-05-26T05:48:59Z,42.805,6.029,13.2993,4.60001,2470.46,2021-5-26T07:50:11Z
2021-05-26T05:52:03Z,42.805,6.029,13.2994,4.60002,2470.507,2021-5-26T07:53:14Z
2021-05-26T05:55:06Z,42.805,6.029,13.2993,4.60000,2470.45,2021-5-26T07:56:18Z
2021-05-26T05:58:09Z,42.805,6.029,13.2997,4.60000,2470.474,2021-5-26T07:59:21Z
2021-05-26T06:01:12Z,42.805,6.029,13.2995,4.60001,2470.52,2021-5-26T08:02:24Z
2021-05-26T06:04:15Z,42.805,6.029,13.2998,4.60000,2470.46,2021-5-26T08:05:27Z
2021-05-26T06:07:18Z,42.805,6.029,13.2998,4.60001,2470.483,2021-5-26T08:08:30Z
2021-05-26T06:10:21Z,42.805,6.029,13.2996,4.60001,2470.507,2021-5-26T08:11:33Z
2021-05-26T06:13:24Z,42.805,6.029,13.2998,4.60001,2470.483,2021-5-26T08:14:36Z
2021-05-26T06:16:28Z,42.805,6.029,13.2995,4.60001,2470.46,2021-5-26T08:17:39Z
2021-05-26T06:19:31Z,42.805,6.029,13.2994,4.60001,2470.46,2021-5-26T08:20:43Z
2021-05-26T06:22:34Z,42.805,6.029,13.2997,4.60001,2470.46,2021-5-26T08:23:46Z
2021-05-26T06:25:37Z,42.805,6.029,13.2997,4.60001,2470.46,2021-5-26T08:26:49Z
2021-05-26T06:28:40Z,42.805,6.029,13.2996,4.60001,2470.46,2021-5-26T08:29:52Z
2021-05-26T06:31:43Z,42.805,6.029,13.2996,4.60001,2470.497,2021-5-26T08:32:55Z
2021-05-26T06:34:46Z,42.805,6.029,13.2997,4.60002,2470.46,2021-5-26T08:35:58Z
2021-05-26T06:37:49Z,42.805,6.029,13.2994,4.60001,2470.46,2021-5-26T08:39:01Z
2021-05-26T06:40:53Z,42.805,6.029,13.2996,4.60002,2470.507,2021-5-26T08:42:04Z
2021-05-26T06:43:56Z,42.805,6.029,13.2998,4.60002,2470.507,2021-5-26T08:45:08Z
2021-05-26T06:46:59Z,42.805,6.029,13.2997,4.60002,2470.507,2021-5-26T08:48:11Z
2021-05-26T06:50:02Z,42.805,6.029,13.2998,4.60003,2470.52,2021-5-26T08:51:14Z
2021-05-26T06:53:05Z,42.805,6.029,13.2998,4.60002,2470.497,2021-5-26T08:54:17Z
2021-05-26T06:56:08Z,42.805,6.029,13.2998,4.60006,2470.483,2021-5-26T08:57:20Z
2021-05-26T06:59:11Z,42.805,6.029,13.2995,4.60003,2470.497,2021-5-26T09:00:23Z
2021-05-26T07:02:14Z,42.805,6.029,13.2993,4.60004,2470.46,2021-5-26T09:03:26Z
2021-05-26T07:05:17Z,42.805,6.029,13.2998,4.60002,2470.483,2021-5-26T09:06:29Z
2021-05-26T07:08:21Z,42.805,6.029,13.2994,4.60002,2470.474,2021-5-26T09:09:33Z
2021-05-26T07:11:24Z,42.805,6.029,13.3000,4.60003,2470.46,2021-5-26T09:12:36Z
2021-05-26T07:14:27Z,42.805,6.029,13.2995,4.60005,2470.45,2021-5-26T09:15:39Z
2021-05-26T07:17:30Z,42.805,6.029,13.2998,4.60005,2470.52,2021-5-26T09:18:42Z
2021-05-26T07:20:33Z,42.805,6.029,13.3000,4.60003,2470.474,2021-5-26T09:21:45Z
2021-05-26T07:23:36Z,42.805,6.029,13.2998,4.60003,2470.507,2021-5-26T09:24:48Z
2021-05-26T07:26:39Z,42.805,6.029,13.2993,4.60006,2470.45,2021-5-26T09:27:51Z
2021-05-26T07:29:42Z,42.805,6.029,13.2994,4.60002,2470.474,2021-5-26T09:30:54Z
2021-05-26T07:32:46Z,42.805,6.029,13.2996,4.60004,2470.474,2021-5-26T09:33:58Z
2021-05-26T07:35:49Z,42.805,6.029,13.2994,4.60003,2470.483,2021-5-26T09:37:01Z
2021-05-26T07:38:52Z,42.805,6.029,13.2996,4.60002,2470.497,2021-5-26T09:40:04Z
2021-05-26T07:41:55Z,42.805,6.029,13.2993,4.60003,2470.483,2021-5-26T09:43:07Z
2021-05-26T07:44:58Z,42.805,6.029,13.2997,4.60003,2470.45,2021-5-26T09:46:10Z
2021-05-26T07:48:01Z,42.805,6.029,13.2996,4.60002,2470.483,2021-5-26T09:49:13Z
2021-05-26T07:51:04Z,42.805,6.029,13.2995,4.60003,2470.474,2021-5-26T09:52:16Z
2021-05-26T07:54:07Z,42.805,6.029,13.2999,4.60003,2470.46,2021-5-26T09:55:19Z
2021-05-26T07:57:11Z,42.805,6.029,13.2996,4.60003,2470.483,2021-5-26T09:58:23Z
2021-05-26T08:00:14Z,42.805,6.029,13.2993,4.60003,2470.497,2021-5-26T10:01:26Z
2021-05-26T08:03:17Z,42.805,6.029,13.2994,4.60003,2470.474,2021-5-26T10:04:29Z
2021-05-26T08:06:20Z,42.805,6.029,13.2993,4.60007,2470.46,2021-5-26T10:07:32Z
2021-05-26T08:09:23Z,42.805,6.029,13.2998,4.60003,2470.46,2021-5-26T10:10:35Z
2021-05-26T08:12:26Z,42.805,6.029,13.2996,4.60004,2470.446,2021-5-26T10:13:38Z
2021-05-26T08:15:29Z,42.805,6.029,13.2998,4.60003,2470.437,2021-5-26T10:16:41Z
2021-05-26T08:18:32Z,42.805,6.029,13.2995,4.60003,2470.46,2021-5-26T10:19:44Z
2021-05-26T08:21:36Z,42.805,6.029,13.2995,4.60003,2470.46,2021-5-26T10:22:48Z
2021-05-26T08:24:39Z,42.805,6.029,13.2997,4.60007,2470.45,2021-5-26T10:25:51Z
2021-05-26T08:27:42Z,42.805,6.029,13.2997,4.60004,2470.483,2021-5-26T10:28:54Z
2021-05-26T08:30:45Z,42.805,6.029,13.2996,4.60003,2470.46,2021-5-26T10:31:57Z
2021-05-26T08:33:48Z,42.805,6.029,13.2996,4.60005,2470.46,2021-5-26T10:35:00Z
2021-05-26T08:36:51Z,42.805,6.029,13.2995,4.60003,2470.437,2021-5-26T10:38:03Z
2021-05-26T08:39:54Z,42.805,6.029,13.2996,4.60003,2470.437,2021-5-26T10:41:06Z
2021-05-26T08:42:58Z,42.805,6.029,13.2994,4.60006,2470.437,2021-5-26T10:44:09Z
2021-05-26T08:46:01Z,42.805,6.029,13.2993,4.60003,2470.45,2021-5-26T10:47:13Z
2021-05-26T08:49:04Z,42.805,6.029,13.2995,4.60003,2470.437,2021-5-26T10:50:16Z
2021-05-26T08:52:07Z,42.805,6.029,13.2996,4.60002,2470.427,2021-5-26T10:53:19Z
2021-05-26T08:55:10Z,42.805,6.029,13.2996,4.60003,2470.437,2021-5-26T10:56:22Z
2021-05-26T08:58:13Z,42.805,6.029,13.2996,4.60002,2470.45,2021-5-26T10:59:25Z
2021-05-26T09:01:16Z,42.805,6.029,13.2996,4.60008,2470.413,2021-5-26T11:02:28Z
2021-05-26T09:04:19Z,42.805,6.029,13.2995,4.60003,2470.488,2021-5-26T11:05:31Z
2021-05-26T09:07:23Z,42.805,6.029,13.2994,4.60002,2470.404,2021-5-26T11:08:34Z
2021-05-26T09:10:26Z,42.805,6.029,13.2997,4.60003,2470.437,2021-5-26T11:11:38Z
2021-05-26T09:13:29Z,42.805,6.029,13.2991,4.60002,2470.413,2021-5-26T11:14:41Z
2021-05-26T09:16:32Z,42.805,6.029,13.2997,4.60004,2470.404,2021-5-26T11:17:44Z
2021-05-26T09:19:35Z,42.805,6.029,13.2996,4.60002,2470.45,2021-5-26T11:20:47Z
2021-05-26T09:22:38Z,42.805,6.029,13.2994,4.60003,2470.413,2021-5-26T11:23:50Z
2021-05-26T09:25:41Z,42.805,6.029,13.2998,4.60004,2470.413,2021-5-26T11:26:53Z
2021-05-26T09:28:44Z,42.805,6.029,13.2996,4.60003,2470.404,2021-5-26T11:29:56Z
2021-05-26T09:31:48Z,42.805,6.029,13.2997,4.60003,2470.39,2021-5-26T11:32:59Z
2021-05-26T09:34:51Z,42.805,6.029,13.2996,4.60002,2470.427,2021-5-26T11:36:03Z
2021-05-26T09:37:54Z,42.805,6.029,13.2996,4.60002,2470.376,2021-5-26T11:39:06Z
2021-05-26T09:40:57Z,42.805,6.029,13.2998,4.60013,2470.45,2021-5-26T11:42:09Z
2021-05-26T09:44:00Z,42.805,6.029,13.2998,4.60003,2470.39,2021-5-26T11:45:12Z
2021-05-26T09:47:03Z,42.805,6.029,13.2996,4.60003,2470.376,2021-5-26T11:48:15Z
2021-05-26T09:50:06Z,42.805,6.029,13.2999,4.60002,2470.38,2021-5-26T11:51:18Z
2021-05-26T09:53:09Z,42.805,6.029,13.2996,4.60003,2470.376,2021-5-26T11:54:21Z
2021-05-26T09:56:13Z,42.805,6.029,13.2993,4.60003,2470.404,2021-5-26T11:57:24Z
2021-05-26T09:59:16Z,42.805,6.029,13.2996,4.60002,2470.39,2021-5-26T12:00:28Z
2021-05-26T10:02:19Z,42.805,6.029,13.2997,4.60003,2470.39,2021-5-26T12:03:31Z
2021-05-26T10:05:22Z,42.805,6.029,13.2996,4.60003,2470.366,2021-5-26T12:06:34Z
2021-05-26T10:08:25Z,42.805,6.029,13.3000,4.60006,2470.366,2021-5-26T12:09:37Z
2021-05-26T10:11:28Z,42.805,6.029,13.2993,4.60004,2470.366,2021-5-26T12:12:40Z
2021-05-26T10:14:31Z,42.805,6.029,13.2996,4.60003,2470.343,2021-5-26T12:15:43Z
2021-05-26T10:17:34Z,42.805,6.029,13.2996,4.60004,2470.366,2021-5-26T12:18:46Z
2021-05-26T10:20:38Z,42.805,6.029,13.2999,4.60006,2470.366,2021-5-26T12:21:50Z
2021-05-26T10:23:41Z,42.805,6.029,13.3002,4.60004,2470.366,2021-5-26T12:24:53Z
2021-05-26T10:26:44Z,42.805,6.029,13.3000,4.60003,2470.334,2021-5-26T12:27:56Z
2021-05-26T10:29:47Z,42.805,6.029,13.3000,4.60004,2470.366,2021-5-26T12:30:59Z
2021-05-26T10:32:50Z,42.805,6.029,13.3000,4.60005,2470.38,2021-5-26T12:34:02Z
2021-05-26T10:35:53Z,42.805,6.029,13.2994,4.60005,2470.366,2021-5-26T12:37:05Z
2021-05-26T10:38:56Z,42.805,6.029,13.2997,4.60004,2470.343,2021-5-26T12:40:08Z
2021-05-26T10:41:59Z,42.805,6.029,13.3001,4.60004,2470.334,2021-5-26T12:43:11Z
2021-05-26T10:45:03Z,42.805,6.029,13.2998,4.60004,2470.32,2021-5-26T12:46:15Z
2021-05-26T10:48:06Z,42.805,6.029,13.2996,4.60003,2470.297,2021-5-26T12:49:18Z
2021-05-26T10:51:09Z,42.805,6.029,13.2994,4.60006,2470.343,2021-5-26T12:52:21Z
2021-05-26T10:54:12Z,42.805,6.029,13.2992,4.60004,2470.343,2021-5-26T12:55:24Z
2021-05-26T10:57:15Z,42.805,6.029,13.2998,4.60003,2470.32,2021-5-26T12:58:27Z
2021-05-26T11:00:18Z,42.805,6.029,13.2999,4.60009,2470.357,2021-5-26T13:01:30Z
2021-05-26T11:03:21Z,42.805,6.029,13.2999,4.60003,2470.297,2021-5-26T13:04:33Z
2021-05-26T11:06:25Z,42.805,6.029,13.2995,4.60003,2470.297,2021-5-26T13:07:36Z
2021-05-26T11:09:28Z,42.805,6.029,13.2995,4.60006,2470.32,2021-5-26T13:10:40Z
2021-05-26T11:12:31Z,42.805,6.029,13.2998,4.60005,2470.31,2021-5-26T13:13:43Z
2021-05-26T11:15:34Z,42.805,6.029,13.2996,4.60003,2470.31,2021-5-26T13:16:46Z
2021-05-26T11:18:37Z,42.805,6.029,13.2995,4.60004,2470.31,2021-5-26T13:19:49Z
2021-05-26T11:21:40Z,42.805,6.029,13.2996,4.60003,2470.334,2021-5-26T13:22:52Z
2021-05-26T11:24:43Z,42.805,6.029,13.2997,4.60013,2470.25,2021-5-26T13:25:55Z
2021-05-26T11:27:46Z,42.805,6.029,13.2996,4.60009,2470.273,2021-5-26T13:28:58Z
2021-05-26T11:30:50Z,42.805,6.029,13.2994,4.60002,2470.25,2021-5-26T13:32:01Z
2021-05-26T11:33:53Z,42.805,6.029,13.2994,4.60002,2470.273,2021-5-26T13:35:05Z
2021-05-26T11:36:56Z,42.805,6.029,13.2996,4.60007,2470.273,2021-5-26T13:38:08Z
2021-05-26T11:39:59Z,42.805,6.029,13.2996,4.60003,2470.287,2021-5-26T13:41:11Z
2021-05-26T11:43:02Z,42.805,6.029,13.2996,4.60002,2470.297,2021-5-26T13:44:14Z
2021-05-26T11:46:05Z,42.805,6.029,13.2995,4.60003,2470.25,2021-5-26T13:47:17Z
2021-05-26T11:49:08Z,42.805,6.029,13.2993,4.60003,2470.334,2021-5-26T13:50:20Z
2021-05-26T11:52:11Z,42.805,6.029,13.2996,4.60003,2470.264,2021-5-26T13:53:23Z
2021-05-26T11:55:15Z,42.805,6.029,13.2993,4.60003,2470.287,2021-5-26T13:56:26Z
2021-05-26T11:58:18Z,42.805,6.029,13.2995,4.60002,2470.273,2021-5-26T13:59:30Z
2021-05-26T12:01:21Z,42.805,6.029,13.2997,4.60002,2470.25,2021-5-26T14:02:33Z
2021-05-26T12:04:24Z,42.805,6.029,13.2996,4.60004,2470.287,2021-5-26T14:05:36Z
2021-05-26T12:07:27Z,42.805,6.029,13.2997,4.60004,2470.297,2021-5-26T14:08:39Z
2021-05-26T12:10:30Z,42.805,6.029,13.2993,4.60003,2470.264,2021-5-26T14:11:42Z
2021-05-26T12:13:33Z,42.805,6.029,13.2996,4.60002,2470.227,2021-5-26T14:14:45Z
2021-05-26T12:16:36Z,42.805,6.029,13.2992,4.60001,2470.287,2021-5-26T14:17:48Z
2021-05-26T12:19:40Z,42.805,6.029,13.2996,4.60002,2470.25,2021-5-26T14:20:52Z
2021-05-26T12:22:43Z,42.805,6.029,13.2993,4.60001,2470.273,2021-5-26T14:23:55Z
2021-05-26T12:25:46Z,42.805,6.029,13.2993,4.60001,2470.25,2021-5-26T14:26:58Z
2021-05-26T12:28:49Z,42.805,6.029,13.2996,4.60000,2470.287,2021-5-26T14:30:01Z
2021-05-26T12:31:52Z,42.805,6.029,13.2996,4.60001,2470.203,2021-5-26T14:33:04Z
2021-05-26T12:34:55Z,42.805,6.029,13.2996,4.60001,2470.264,2021-5-26T14:36:07Z
2021-05-26T12:37:58Z,42.805,6.029,13.2993,4.60001,2470.227,2021-5-26T14:39:10Z
2021-05-26T12:41:01Z,42.805,6.029,13.2993,4.60000,2470.273,2021-5-26T14:42:13Z
2021-05-26T12:44:05Z,42.805,6.029,13.2993,4.60000,2470.227,2021-5-26T14:45:17Z
2021-05-26T12:47:08Z,42.805,6.029,13.2991,4.60000,2470.227,2021-5-26T14:48:20Z
2021-05-26T12:50:11Z,42.805,6.029,13.2996,4.60000,2470.24,2021-5-26T14:51:23Z
2021-05-26T12:53:14Z,42.805,6.029,13.2993,4.60001,2470.227,2021-5-26T14:54:26Z
2021-05-26T12:56:17Z,42.805,6.029,13.2991,4.59999,2470.227,2021-5-26T14:57:29Z
2021-05-26T12:59:20Z,42.805,6.029,13.2997,4.60000,2470.25,2021-5-26T15:00:32Z
2021-05-26T13:02:23Z,42.805,6.029,13.2990,4.60002,2470.227,2021-5-26T15:03:35Z
2021-05-26T13:05:27Z,42.805,6.029,13.2991,4.59999,2470.227,2021-5-26T15:06:38Z
2021-05-26T13:08:30Z,42.805,6.029,13.2996,4.60001,2470.217,2021-5-26T15:09:42Z
2021-05-26T13:11:33Z,42.805,6.029,13.2995,4.59999,2470.24,2021-5-26T15:12:45Z
2021-05-26T13:14:36Z,42.805,6.029,13.2996,4.59999,2470.25,2021-5-26T15:15:48Z
2021-05-26T13:17:39Z,42.805,6.029,13.2992,4.59999,2470.25,2021-5-26T15:18:51Z
2021-05-26T13:20:42Z,42.805,6.029,13.2993,4.59999,2470.227,2021-5-26T15:21:54Z
2021-05-26T13:23:45Z,42.805,6.029,13.2991,4.59999,2470.264,2021-5-26T15:24:57Z
2021-05-26T13:26:48Z,42.805,6.029,13.2994,4.59999,2470.217,2021-5-26T15:28:00Z
2021-05-26T13:29:52Z,42.805,6.029,13.2992,4.59998,2470.227,2021-5-26T15:31:03Z
2021-05-26T13:32:55Z,42.805,6.029,13.2993,4.59999,2470.227,2021-5-26T15:34:07Z
2021-05-26T13:35:58Z,42.805,6.029,13.2994,4.59999,2470.18,2021-5-26T15:37:10Z
2021-05-26T13:39:01Z,42.805,6.029,13.2993,4.59999,2470.25,2021-5-26T15:40:13Z
2021-05-26T13:42:04Z,42.805,6.029,13.2991,4.60000,2470.227,2021-5-26T15:43:16Z
2021-05-26T13:45:07Z,42.805,6.029,13.2991,4.59999,2470.203,2021-5-26T15:46:19Z
2021-05-26T13:48:10Z,42.805,6.029,13.2994,4.59999,2470.25,2021-5-26T15:49:22Z
2021-05-26T13:51:13Z,42.805,6.029,13.2996,4.59999,2470.203,2021-5-26T15:52:25Z
2021-05-26T13:54:17Z,42.805,6.029,13.2993,4.59999,2470.24,2021-5-26T15:55:28Z
2021-05-26T13:57:20Z,42.805,6.029,13.2994,4.59999,2470.227,2021-5-26T15:58:32Z
2021-05-26T14:00:23Z,42.805,6.029,13.2996,4.59999,2470.203,2021-5-26T16:01:35Z
2021-05-26T14:03:26Z,42.805,6.029,13.2998,4.60000,2470.203,2021-5-26T16:04:38Z
2021-05-26T14:06:29Z,42.805,6.029,13.2994,4.59999,2470.264,2021-5-26T16:07:41Z
2021-05-26T14:09:32Z,42.805,6.029,13.2996,4.59999,2470.24,2021-5-26T16:10:44Z
2021-05-26T14:12:35Z,42.805,6.029,13.2993,4.59999,2470.227,2021-5-26T16:13:47Z
2021-05-26T14:15:38Z,42.805,6.029,13.2996,4.59999,2470.203,2021-5-26T16:16:50Z
2021-05-26T14:18:42Z,42.805,6.029,13.2994,4.59998,2470.25,2021-5-26T16:19:53Z
2021-05-26T14:21:45Z,42.805,6.029,13.2994,4.59998,2470.25,2021-5-26T16:22:57Z
2021-05-26T14:24:48Z,42.805,6.029,13.2991,4.59998,2470.24,2021-5-26T16:26:00Z
2021-05-26T14:27:51Z,42.805,6.029,13.2993,4.60001,2470.25,2021-5-26T16:29:03Z
2021-05-26T14:30:54Z,42.805,6.029,13.2993,4.60001,2470.25,2021-5-26T16:32:06Z
2021-05-26T14:33:57Z,42.805,6.029,13.2990,4.59998,2470.25,2021-5-26T16:35:09Z
2021-05-26T14:37:00Z,42.805,6.029,13.2993,4.59999,2470.227,2021-5-26T16:38:12Z
2021-05-26T14:40:03Z,42.805,6.029,13.2992,4.60000,2470.203,2021-5-26T16:41:15Z
2021-05-26T14:43:07Z,42.805,6.029,13.2994,4.59999,2470.264,2021-5-26T16:44:18Z
2021-05-26T14:46:10Z,42.805,6.029,13.2992,4.59999,2470.24,2021-5-26T16:47:22Z
2021-05-26T14:49:13Z,42.805,6.029,13.2991,4.59999,2470.24,2021-5-26T16:50:25Z
2021-05-26T14:52:16Z,42.805,6.029,13.2996,4.59998,2470.227,2021-5-26T16:53:28Z
2021-05-26T14:55:19Z,42.805,6.029,13.2993,4.59999,2470.227,2021-5-26T16:56:31Z
2021-05-26T14:58:22Z,42.805,6.029,13.2994,4.60001,2470.227,2021-5-26T16:59:34Z
2021-05-26T15:01:25Z,42.805,6.029,13.2996,4.59999,2470.264,2021-5-26T17:02:37Z
2021-05-26T15:04:28Z,42.805,6.029,13.2994,4.59999,2470.217,2021-5-26T17:05:40Z
2021-05-26T15:07:32Z,42.805,6.029,13.2992,4.59999,2470.273,2021-5-26T17:08:44Z
2021-05-26T15:10:35Z,42.805,6.029,13.2998,4.59999,2470.273,2021-5-26T17:11:47Z
2021-05-26T15:13:38Z,42.805,6.029,13.2995,4.59999,2470.287,2021-5-26T17:14:50Z